Find Starlink 11256

NORAD ID: 60904 Int'l Des: 2024-154 Owner: SPXS Country: US Constellation: starlink operational
LEOCIRCULAR

リアルタイム位置

3D地球を読み込み中...

Starlink 11256について

説明を読み込み中...

次回通過

Passes for default location (London). Set your location on the main map for personalized predictions.

高度履歴

Loading altitude history...

軌道要素

1 60904U 24154B 26125.64180334 .00000933 00000-0 12563-4 0 9996
2 60904 53.1602 210.1935 0001653 105.9352 254.1848 15.69708363 97465
Epoch: May 5, 2026 • Age: 8 hours

現在のステータス

高度 364.7 km
速度 7.69 km/s
衛星直下点 -17.91°S, 179.98°E
打ち上げ日 Aug 31, 2024
運用期間 1.6 years
タイプ internet

技術仕様

分類 Payload
質量 960.00 kg
乾燥質量 910.00 kg
総質量 960.00 kg
長さ 0.30 m
直径 4.10 m
スパン 29.00 m
形状 Box + pan
製造者 SPXS
バスタイプ Starlink V2MD
フェーズステータス In Orbit
所有者/国 SPXS/US

Most Searched